BEIDOU-3 IGSO-1 (C38)

Last updated on Sun Apr 12 2026 00:03:31 GMT+0000 (Coordinated Universal Time)

1 44204U 19023A 26100.70491394 -.00000205 00000+0 00000+0 0 9991 2 44204 58.6054 38.3458 0024783 235.7208 296.3383 1.00260268 6539
UTC large
Height (km)
Speed (km/s)
/
Latitude / Longitude
Inclination (degrees)
Orbital Period (minutes)
Azimuth
Elevation
Range (km)
Doppler Factor

Next 0 passes for location: London (51.5072 / 0.1276)

Sorry there are no passes over London.